www.pogodaiklimat.ru

Погода и климат >> Архив погоды >> Россия >> Камчатский край >> Оссора


АРХИВ ПОГОДЫ в Оссоре

Время (UTC), дата Ветер
(напр.,м/с)
 
Видим.   Явления Облачность Т
(С)
Тd
(С)
f
(%)
Тe
(С)
Тes
(С)
Комфортность P
(гПа)
Po
(гПа)
Тmin
(С)
Tmax
(С)
R
(мм)
R24
(мм)
S
(см)
15 9.07 СЗ 1 н/о н/о +12.8 +10.0 83 +13 +13 1012.8 1012.0
18 9.07 ЮЗ 2 20 км 10/0
[Ac trans Ci fib]
+12.9 +10.1 83 +12 +12 1012.8 1012.0
21 9.07 ЮЗ / 20 км 10/0
[Ac trans Ci fib]
+17.0 +12.1 73 +17 +22 1011.3 1010.5 +12.2
00 10.07 ЮВ 2 50 км 10/3 600 м
[Sc Ac trans Ci fib]
+20.1 +12.6 62 +23 +23 комфорт 1011.5 1010.7
03 10.07 СВ 3 50 км 10/4 600 м
[Sc Ac trans Ci fib]
+24.2 +8.2 36 +25 +25 комфорт 1010.1 1009.3
06 10.07 ЮВ 2 50 км 10/0
[Ac As]
+19.0 +10.8 59 +20 +20 1010.1 1009.3
09 10.07 ЮЗ 1 50 км 9/0
[Ac As]
+17.7 +12.2 70 +19 +19 1010.1 1009.3 +24.4
12 10.07 штиль 0 20 км 10/0
[Ac trans Ci fib]
+13.8 +9.4 75 +13 +13 1008.8 1008.0
15 10.07 ЮЗ 1 20 км 10/0
[Ac trans Ci fib]
+13.2 +9.6 79 +13 +13 1007.5 1006.7
18 10.07 С 3 50 км 6/4 1000 м
[Sc Ci fib]
+14.8 +9.6 71 +14 +14 1010.1 1009.3
21 10.07 СВ 5 20 км 3/1 100 м
[St Ac trans]
+15.8 +11.0 73 +15 +17 1010.0 1009.1 +12.6
00 11.07 В 5 20 км 10/3 200 м
[St Ac trans Ci fib]
+14.3 +11.1 81 +13 +13 1011.5 1010.7
03 11.07 В 4 50 км 10/4 600 м
[Sc Ac trans Ci fib]
+15.9 +11.5 75 +15 +15 1011.5 1010.7
06 11.07 СВ 2 50 км 10/3 600 м
[Sc Ac trans Ci fib]
+17.2 +10.6 65 +18 +18 1010.1 1009.3
09 11.07 СВ 3 50 км 10/4 600 м
[Sc Ac trans Ci fib]
+14.3 +10.1 76 +13 +13 1011.5 1010.7 +18.7
12 11.07 СВ 2 20 км 10/10 200 м
[St]
+12.1 +9.1 82 +11 +11 1011.5 1010.7
15 11.07 СВ 3 20 км 10/10 200 м
[St]
+12.0 +8.8 81 +10 +10 1011.5 1010.7
18 11.07 СВ 1 20 км 10/3 200 м
[St Ac trans Ci fib]
+12.0 +9.0 82 +12 +12 1012.8 1012.0
21 11.07 В 4 20 км 10/10 300 м
[St]
+12.8 +9.1 78 +11 +11 1011.7 1010.8 +11.5
00 12.07 В 4 50 км 10/5 600 м
[Sc Ac trans Ci fib]
+14.0 +7.7 66 +13 +13 1012.8 1012.0
03 12.07 В 3 50 км 10/3 600 м
[Sc Ac trans Ci fib]
+14.4 +7.9 65 +14 +14 1011.5 1010.7
06 12.07 В 3 50 км 10/3 600 м
[Sc Ac trans Ci fib]
+14.1 +8.3 68 +13 +13 1011.5 1010.7
09 12.07 В 3 50 км 10/4 600 м
[Sc Ac trans Ci fib]
+12.6 +8.5 76 +11 +11 1012.8 1012.0 +14.8
12 12.07 С 1 20 км 10/3 600 м
[Sc Ac trans Ci fib]
+11.2 +8.2 82 +11 +11 1012.8 1012.0
15 12.07 С 1 н/о н/о +11.4 +8.3 81 +11 +11 1012.8 1012.0
18 12.07 В 2 н/о н/о +11.8 +8.3 79 +11 +11 1014.1 1013.3
21 12.07 В 2 50 км 10/4 600 м
[Sc Ac trans Ci fib]
+12.9 +9.1 78 +12 +14 1013.0 1012.2 +11.1
00 13.07 Ю 5 50 км 9/9 600 м
[Sc]
+13.3 +8.2 71 +11 +12 1014.1 1013.3
03 13.07 Ю 6 50 км 3/3 600 м
[Sc]
+15.1 +7.9 62 +14 +17 1012.8 1012.0
06 13.07 Ю 5
{11}
50 км 3/1 600 м
[Sc Ci fib]
+14.8 +8.1 64 +13 +15 1012.8 1012.0
09 13.07 Ю 4 50 км ясно +11.7 +8.3 80 +10 +10 1011.6 1010.7 +15.6
12 13.07 З 2 20 км ясно +9.7 +7.7 87 +8 +8 1011.6 1010.7
15 13.07 ЮЗ 2 н/о н/о +5.9 +4.4 90 +3 +3 1011.0 1010.2
18 13.07 З 1 200 м туман 10/10 100 м
[St]
+5.7 +4.3 91 +4 +4 1011.6 1010.7
21 13.07 ЮЗ 3 50 км {туман} 10/0
[Ci fib]
+15.2 +9.6 69 +15 +19 1010.0 1009.2 +4.9
00 14.07 ЮВ 3 50 км {туман} 10/0
[Ci fib]
+18.8 +11.9 64 +20 +29 1009.0 1008.2
03 14.07 ЮВ 2 50 км 6/0
[Ci fib]
+21.3 +11.6 54 +23 +28 комфорт 1008.8 1008.0
06 14.07 Ю 4 50 км 6/0
[Ci fib]
+22.5 +9.6 44 +24 +25 комфорт 1007.5 1006.7
09 14.07 штиль 0 20 км 6/0
[Ci fib]
+17.8 +11.8 68 +18 +18 1007.5 1006.7 +23.2
12 14.07 штиль 0 20 км 8/0
[Ci fib]
+14.6 +11.9 84 +14 +14 1007.5 1006.7
15 14.07 ЮВ 1 20 км 6/0
[Ci fib]
+13.5 +10.5 82 +14 +14 1007.5 1006.7
18 14.07 СВ 1 20 км 10/0
[Ci fib]
+15.4 +11.2 76 +16 +16 1007.5 1006.7
21 14.07 В 1 20 км 10/0
[Ci fib]
+17.8 +11.4 66 +19 +25 1006.6 1005.8 +12.6
00 15.07 ЮВ 2 20 км 10/0
[Ac trans Ci fib]
+17.2 +11.5 69 +18 +18 1007.5 1006.7
03 15.07 В 2 20 км 10/0
[Ac trans Ci fib]
+18.0 +12.2 69 +19 +19 1007.5 1006.7
06 15.07 В 1 20 км 10/0
[Cs]
+18.7 +12.9 69 +21 +21 комфорт 1007.5 1006.7
09 15.07 ЮЗ 1 20 км 10/0
[Cs]
+19.1 +11.4 61 +21 +21 комфорт 1007.5 1006.7 +21.1
12 15.07 З 2 20 км 10/0
[Ac trans Ci fib]
+13.9 +11.4 85 +13 +13 1008.8 1008.0
15 15.07 С 1 н/о н/о +13.1 +10.8 86 +13 +13 1008.8 1008.0
18 15.07 штиль 0 н/о н/о +13.0 +11.1 88 +12 +12 1008.8 1008.0
21 15.07 ЮВ 2 20 км 10/10 300 м
[St]
+14.8 +11.9 83 +14 +14 1008.6 1007.8 +12.4
00 16.07 В 3 20 км 10 баллов +15.5 +11.9 79 +15 +15 1010.1 1009.3
03 16.07 В 4 20 км 10 баллов +16.5 +12.1 75 +16 +16 1010.1 1009.3
06 16.07 В 2 20 км 10 баллов +15.0 +11.8 81 +15 +15 1008.8 1008.0
09 16.07 СВ 1 20 км 10/0
[Ac trans Cc]
+14.8 +12.1 84 +15 +15 1008.8 1008.0 +16.9
12 16.07 С 1 20 км 10 баллов +12.8 +11.0 89 +13 +13 1010.1 1009.3

 

Местоположение метеостанции Оссора (Камчатский край, Россия): широта 59.23 долгота 163.00 высота над уровнем моря 7 м.

В архиве по умолчанию представлена погода в Оссоре за последнюю неделю. Архивные данные за месяц целиком и за предыдущие месяцы, начиная с января 2011 года, Вы можете получить, выбрав интересующий диапазон дат из раскрывающегося списка и нажав кнопку "Ввод!".


*Определитесь, кто Вы:
робот инопланетянин человек

Внимание! Время в таблицах - всемирное. Для получения местного времени необходимо прибавить поправку, которая равна 12 ч.

Смотрите также архив погоды в соседних городах и на ближайших метеорологических станциях:

Погода в Чемурнауте (Камчатский край, Россия) (167 км)
Погода на Мысе Озерном (Камчатский край, Россия) (176 км)
Погода в Палане (Камчатский край, Россия) (178 км)
Погода в Тиличиках (Камчатский край, Россия) (214 км)
Погода в Усть-Воямполке (Камчатский край, Россия) (238 км)
Погода в Тигиле (Камчатский край, Россия) (304 км)
Погода в Усть-Камчатске (Камчатский край, Россия) (335 км)
Погода на Мысе Африка (Камчатский край, Россия) (340 км)
Погода в Ключах (Камчатский край, Россия) (349 км)
Погода в Эвенске (Магаданская область, Россия) (364 км)

Пояснения к столбцам:

Ветер - указаны скорость ветра в м/с - средняя за 10 мин, порывы в срок и между сроками (в фигурных скобках) и направление, откуда дует ветер: С - северный, СВ - северо-восточный, В - восточный, ЮВ - юго-восточный, Ю - южный, ЮЗ - юго-западный, З - западный, СЗ - северо-западный.
Видимость - горизонтальная дальность видимости в метрах или километрах. При видимости от 1 до 10 км при отсутствии осадков обычно наблюдается дымка, при ухудшении видимости до 1 км и менее - туман. В сухую погоду видимость может ухудшаться дымом, пылью или мглою.
Явления - указаны атмосферные явления, наблюдавшиеся в срок или в последний час перед сроком; фигурными скобками обозначены явления, наблюдавшиеся между сроками (за 1-3 часа до срока); квадратными скобками обозначены град или гололедные отложения с указанием их диаметра в мм.
Облачность - указаны через наклонную черту общая и нижняя облачность в баллах и высота нижней границы облаков в метрах; квадратными скобками обозначены формы облаков: Ci - перистые, Cs - перисто-слоистые, Cc - перисто-кучевые, Ac - высококучевые, As - высокослоистые, Sc - слоисто-кучевые, Ns - слоисто-дождевые, Cu - кучевые, Cb - кучево-дождевые. Подробнее классификацию облаков см. в Атласе облаков (PDF).
T - Температура воздуха - температура, измеренная на высоте 2 м над землей.
Td - Температура точки росы - температура, при понижении до которой содержащийся в воздухе водяной пар достигнет насыщения.
f - Относительная влажность воздуха - влажноcть воздуха, измеренная на высоте 2 м над землей.
Te - Эффективная температура - температура, которую ощущает одетый по сезону человек в тени. Характеристика душности погоды. При расчете учитывается влияние влажности воздуха и скорости ветра на теплоощущения человека.
Tes - Эффективная температура на солнце - температура, которую ощущает человек, с поправкой на солнечный нагрев. Характеристика знойности погоды. Зависит от высоты солнца над горизонтом, облачности и скорости ветра. Ночью, в пасмурную погоду, а также при ветре 12 м/с и более поправка равна нулю.
P - Атмосферное давление - приведенное к уровню моря атмосферное давление.
Po - Атмосферное давление - измеренное на уровне метеостанции атмосферное давление.
Tmin - Минимальная температура - минимум температуры воздуха на высоте 2 м над землей.
Tmax - Максимальная температура - максимум температуры воздуха на высоте 2 м над землей.
R - Количество осадков - Количество выпавших осадков за период времени, мм. При наведении курсора мыши на число - период времени, за который выпало указанное количество осадков.
R24 - Количество осадков - Количество выпавших осадков за 24 часа, мм.
S - Снежный покров - Высота снежного покрова, см. При наведении курсора мыши на число - состояние снежного покрова и степень покрытия местности в баллах.